Windom, MN

12:34 PM CDT on March 29, 2017 (GMT -0500)
Windom Municipal

Weather History for KMWM - November, 2012

Change the Weather History Date:

Tuesday, November 20, 2012

  Actual Average Record
Temperature  
Mean Temperature 42 °F -  
Max Temperature 60 °F 38 °F 65 °F (1962)
Min Temperature 23 °F 21 °F 0 °F (2014)
Degree Days  
Heating Degree Days 24    
Moisture  
Dew Point 29 °F    
Average Humidity 66    
Maximum Humidity 100    
Minimum Humidity 22    
Precipitation  
Precipitation 0.00 in - - ()
Sea Level Pressure  
Sea Level Pressure 30.10 in    
Wind  
Wind Speed 6 mph (SSW)    
Max Wind Speed 17 mph    
Max Gust Speed 20 mph    
Visibility 8 miles    
Events Fog    
Averages and records for this station are not official NWS values.
T = Trace of Precipitation, MM = Missing Value Source: NWS Daily Summary

Daily Weather History Graph

Daily Weather History Graph

Search for Another Location

Airport or City:

Trip Planner

Search our weather history database for the weather conditions in past years. The results will help you decide how hot, cold, wet, or windy it might be!

Date:

Astronomy

Nov. 20, 2012 Rise Set
Actual Time 7:22 AM CST 4:49 PM CST
Civil Twilight 6:50 AM CST 5:21 PM CST
Nautical Twilight 6:15 AM CST 5:56 PM CST
Astronomical Twilight 5:41 AM CST 6:30 PM CST
Moon 12:49 PM CST (11/20) No Moon Set
Length of Visible Light 10h 30m
Length of Day
9h 27m
First Quarter, 51% of the Moon is Illuminated
Nov 20
First Quarter
Nov 28
Full
Dec 6
Last Quarter
Dec 13
New
Dec 19
First Quarter

Hourly Weather History & Observations

Time (CST) Temp. Windchill Dew Point Humidity Pressure Visibility Wind Dir Wind Speed Gust Speed Precip Events Conditions
12:12 AM 39.2 °F 32.5 °F 35.6 °F 87% 30.11 in 10.0 mi NW 10.4 mph - N/A   Scattered Clouds
12:32 AM 37.4 °F 32.1 °F 33.8 °F 87% 30.11 in 10.0 mi NW 6.9 mph - N/A   Clear
12:53 AM 35.6 °F 31.7 °F 33.8 °F 93% 30.11 in 10.0 mi NW 4.6 mph - N/A   Clear
1:12 AM 35.6 °F 31.7 °F 33.8 °F 93% 30.11 in 10.0 mi WNW 4.6 mph - N/A   Clear
1:32 AM 35.6 °F 29.2 °F 33.8 °F 93% 30.11 in 10.0 mi NW 8.1 mph - N/A   Clear
1:53 AM 35.6 °F 30.7 °F 33.8 °F 93% 30.11 in 10.0 mi NW 5.8 mph - N/A   Clear
2:12 AM 33.8 °F 28.6 °F 32.0 °F 93% 30.12 in 7.0 mi NW 5.8 mph - N/A   Clear
2:33 AM 33.8 °F 27.7 °F 32.0 °F 93% 30.12 in 7.0 mi NW 6.9 mph - N/A   Clear
2:52 AM 33.8 °F 28.6 °F 32.0 °F 93% 30.13 in 7.0 mi NW 5.8 mph - N/A   Clear
3:12 AM 32.0 °F 28.7 °F 30.2 °F 93% 30.13 in 7.0 mi NNW 3.5 mph - N/A   Clear
3:33 AM 32.0 °F 27.5 °F 30.2 °F 93% 30.13 in 5.0 mi NNW 4.6 mph - N/A   Clear
3:52 AM 30.2 °F - 30.2 °F 100% 30.14 in 7.0 mi Calm Calm - N/A   Clear
4:12 AM 30.2 °F 24.3 °F 28.4 °F 93% 30.15 in 5.0 mi NW 5.8 mph - N/A   Clear
4:32 AM 30.2 °F - 28.4 °F 93% 30.14 in 5.0 mi Calm Calm - N/A   Clear
4:52 AM 30.2 °F 22.6 °F 30.2 °F 100% 30.14 in 7.0 mi NNW 8.1 mph - N/A   Clear
5:13 AM 28.4 °F 23.3 °F 28.4 °F 100% 30.14 in 5.0 mi NW 4.6 mph - N/A   Clear
5:32 AM 28.4 °F - 26.6 °F 93% 30.14 in 5.0 mi Calm Calm - N/A   Clear
5:52 AM 26.6 °F 22.6 °F 24.8 °F 93% 30.15 in 4.0 mi WNW 3.5 mph - N/A   Clear
6:13 AM 24.8 °F 20.5 °F 24.8 °F 100% 30.15 in 4.0 mi WNW 3.5 mph - N/A   Clear
6:32 AM 24.8 °F - 24.8 °F 100% 30.15 in 3.0 mi Calm Calm - N/A   Clear
6:52 AM 24.8 °F - 24.8 °F 100% 30.14 in 0.8 mi Calm Calm - N/A   Mostly Cloudy
7:13 AM 24.8 °F - 24.8 °F 100% 30.14 in 0.2 mi Calm Calm - N/A Fog Light Freezing Fog
7:32 AM 23.0 °F 15.8 °F 21.2 °F 93% 30.16 in 0.5 mi WSW 5.8 mph - N/A Fog Light Freezing Fog
7:52 AM 24.8 °F 17.9 °F 24.8 °F 100% 30.17 in 0.2 mi West 5.8 mph - N/A Fog Light Freezing Fog
8:13 AM 24.8 °F 19.1 °F 24.8 °F 100% 30.17 in 0.2 mi West 4.6 mph - N/A Fog Light Freezing Fog
8:32 AM 28.4 °F 24.6 °F 26.6 °F 93% 30.17 in 2.5 mi West 3.5 mph - N/A   Scattered Clouds
8:52 AM 30.2 °F 24.3 °F 30.2 °F 100% 30.18 in 3.0 mi West 5.8 mph - N/A   Clear
9:12 AM 32.0 °F 28.7 °F 32.0 °F 100% 30.17 in 4.0 mi WNW 3.5 mph - N/A   Clear
9:32 AM 35.6 °F - 35.6 °F 100% 30.17 in 4.0 mi Calm Calm - N/A   Clear
9:53 AM 37.4 °F - 35.6 °F 93% 30.17 in 5.0 mi Calm Calm - N/A   Clear
10:12 AM 39.2 °F - 35.6 °F 87% 30.16 in 7.0 mi Calm Calm - N/A   Clear
10:33 AM 42.8 °F - 37.4 °F 81% 30.16 in 7.0 mi Calm Calm - N/A   Clear
10:53 AM 44.6 °F - 37.4 °F 76% 30.16 in 10.0 mi Calm Calm - N/A   Clear
11:12 AM 46.4 °F - 35.6 °F 66% 30.16 in 10.0 mi Calm Calm - N/A   Clear
11:33 AM 48.2 °F - 35.6 °F 62% 30.15 in 10.0 mi SSW 4.6 mph - N/A   Clear
11:52 AM 51.8 °F - 33.8 °F 50% 30.14 in 10.0 mi Calm Calm - N/A   Clear
12:12 PM 53.6 °F - 28.4 °F 38% 30.13 in 10.0 mi Calm Calm - N/A   Clear
12:33 PM 53.6 °F - 26.6 °F 35% 30.13 in 10.0 mi Calm Calm - N/A   Clear
12:52 PM 55.4 °F - 24.8 °F 31% 30.12 in 10.0 mi SSW 8.1 mph - N/A   Clear
1:12 PM 57.2 °F - 21.2 °F 25% 30.12 in 10.0 mi SSW 8.1 mph - N/A   Clear
1:33 PM 57.2 °F - 21.2 °F 25% 30.11 in 10.0 mi SSW 6.9 mph - N/A   Clear
1:52 PM 57.2 °F - 21.2 °F 25% 30.10 in 10.0 mi South 6.9 mph - N/A   Clear
2:12 PM 59.0 °F - 21.2 °F 23% 30.09 in 10.0 mi SSW 6.9 mph - N/A   Clear
2:33 PM 60.8 °F - 21.2 °F 22% 30.09 in 10.0 mi South 5.8 mph - N/A   Clear
2:52 PM 60.8 °F - 23.0 °F 23% 30.08 in 10.0 mi South 6.9 mph - N/A   Clear
3:12 PM 59.0 °F - 21.2 °F 23% 30.08 in 10.0 mi South 8.1 mph - N/A   Clear
3:33 PM 57.2 °F - 24.8 °F 29% 30.08 in 10.0 mi South 6.9 mph - N/A   Clear
3:52 PM 60.8 °F - 24.8 °F 25% 30.07 in 10.0 mi South 5.8 mph - N/A   Clear
4:12 PM 57.2 °F - 24.8 °F 29% 30.07 in 10.0 mi SSE 4.6 mph - N/A   Clear
4:33 PM 55.4 °F - 24.8 °F 31% 30.07 in 10.0 mi SSE 8.1 mph - N/A   Clear
4:52 PM 53.6 °F - 26.6 °F 35% 30.07 in 10.0 mi SSE 8.1 mph - N/A   Clear
5:12 PM 50.0 °F - 26.6 °F 40% 30.08 in 10.0 mi SSE 8.1 mph - N/A   Clear
5:33 PM 48.2 °F - 26.6 °F 43% 30.07 in 10.0 mi SSE 9.2 mph - N/A   Clear
5:52 PM 48.2 °F - 26.6 °F 43% 30.07 in 10.0 mi SSE 8.1 mph - N/A   Clear
6:13 PM 48.2 °F - 26.6 °F 43% 30.06 in 10.0 mi SSE 9.2 mph - N/A   Clear
6:32 PM 46.4 °F 41.9 °F 26.6 °F 46% 30.07 in 10.0 mi SSE 9.2 mph - N/A   Clear
6:53 PM 46.4 °F 41.9 °F 26.6 °F 46% 30.06 in 10.0 mi SSE 9.2 mph - N/A   Clear
7:13 PM 48.2 °F - 26.6 °F 43% 30.06 in 10.0 mi SSE 9.2 mph - N/A   Clear
7:32 PM 46.4 °F 42.4 °F 26.6 °F 46% 30.05 in 10.0 mi SSE 8.1 mph - N/A   Clear
7:53 PM 46.4 °F 42.4 °F 28.4 °F 50% 30.05 in 10.0 mi SSE 8.1 mph - N/A   Clear
8:13 PM 48.2 °F - 28.4 °F 46% 30.04 in 10.0 mi SSE 10.4 mph - N/A   Clear
8:32 PM 48.2 °F - 28.4 °F 46% 30.05 in 10.0 mi South 9.2 mph - N/A   Clear
8:53 PM 46.4 °F 41.9 °F 30.2 °F 53% 30.05 in 10.0 mi South 9.2 mph - N/A   Clear
9:13 PM 46.4 °F 41.9 °F 30.2 °F 53% 30.04 in 10.0 mi South 9.2 mph - N/A   Clear
9:32 PM 48.2 °F - 30.2 °F 50% 30.03 in 10.0 mi South 10.4 mph 16.1 mph N/A   Clear
9:53 PM 46.4 °F 40.7 °F 30.2 °F 53% 30.03 in 10.0 mi South 12.7 mph 16.1 mph N/A   Clear
10:13 PM 46.4 °F 40.7 °F 30.2 °F 53% 30.03 in 10.0 mi South 12.7 mph - N/A   Clear
10:32 PM 48.2 °F - 30.2 °F 50% 30.02 in 10.0 mi South 10.4 mph - N/A   Clear
10:53 PM 48.2 °F - 30.2 °F 50% 30.00 in 10.0 mi South 11.5 mph 19.6 mph N/A   Clear
11:13 PM 48.2 °F - 32.0 °F 54% 30.00 in 10.0 mi South 13.8 mph 18.4 mph N/A   Clear
11:32 PM 48.2 °F - 32.0 °F 54% 30.00 in 10.0 mi South 16.1 mph - N/A   Clear
11:53 PM 48.2 °F - 32.0 °F 54% 30.00 in 10.0 mi South 17.3 mph - N/A   Clear